Location: Del Amo
(33.8464°N, 118.2104°W)
Time: 02:33:50
(UTC+00:00)

SR - Pass Details

Date: 24 September 2024
Orbit: 578 x 855 km, 66.7° (Epoch: 02 October)

Event Time Altitude Azimuth Distance (km) Brightness Sun altitude
Rises 17:04:26 0° 161° (SSE) 2,828 ? 38.9°
Reaches altitude 10° 17:07:49 10° 133° (SE) 1,901 ? 39.4°
Maximum altitude 17:09:44 13° 106° (ESE) 1,711 ? 39.8°
Drops below altitude 10° 17:11:39 10° 79° (E) 1,890 ? 40.1°
Sets 17:14:58 0° 51° (NE) 2,794 ? 40.6°
